EW9968 Weather Reports


time (UTC)temp
F
wind
direction
speed
knots
gust
knots
rain 1hr
in
rain 24hr
in
rain mn
in
humidity
%
barometer
mb
20260507191545 63 41 0.0 0.0 0.00 0.07 0.00 38 1005.8
20260507190040 65 135 0.0 0.0 0.00 0.07 0.00 37 1006.1
20260507184536 64 233 1.7 4.3 0.00 0.08 0.00 35 1006.1
20260507183039 64 51 0.0 0.0 0.00 0.08 0.00 35 1006.2
20260507181533 64 37 0.0 1.7 0.00 0.08 0.00 36 1006.6
20260507180031 65 278 0.9 5.2 0.00 0.08 0.00 36 1006.3
20260507174529 64 20 0.9 4.3 0.00 0.08 0.00 31 1006.5
20260507173027 63 289 0.9 4.3 0.00 0.08 0.00 32 1006.3
20260507171526 63 238 0.0 3.5 0.00 0.08 0.00 33 1006.3
20260507170126 64 323 0.0 1.7 0.00 0.08 0.00 39 1006.5
20260507164523 63 274 0.0 5.2 0.00 0.08 0.00 43 1006.6
20260507163022 63 223 0.0 3.5 0.00 0.08 0.00 42 1006.7
20260507161522 62 205 0.0 3.5 0.00 0.08 0.00 45 1007.0
20260507160030 62 231 0.9 2.6 0.00 0.08 0.00 46 1007.0
20260507154517 62 322 0.0 0.0 0.00 0.08 0.00 48 1007.1
20260507153020 61 210 0.0 0.0 0.00 0.08 0.00 56 1007.0
20260507151512 59 290 0.0 0.0 0.00 0.08 0.00 59 1007.2
20260507150011 60 259 0.0 0.0 0.00 0.08 0.00 61 1007.4
20260507144520 59 292 0.0 0.0 0.00 0.08 0.00 64 1007.5
20260507143008 59 254 0.0 0.0 0.00 0.08 0.00 65 1007.6
20260507141506 59 266 0.0 0.0 0.00 0.08 0.00 68 1007.5
20260507140006 59 277 0.0 0.0 0.00 0.08 0.00 65 1007.5
20260507134504 57 239 0.0 0.0 0.00 0.08 0.00 68 1007.4
20260507133005 58 125 0.0 0.9 0.00 0.08 0.00 70 1007.3
20260507131600 57 290 0.0 0.9 0.00 0.08 0.00 72 1007.6
20260507130055 56 217 0.0 0.0 0.00 0.08 0.00 74 1007.7
20260507124553 55 279 0.0 0.0 0.00 0.08 0.00 75 1007.8
20260507123051 54 292 0.0 0.0 0.00 0.08 0.00 78 1008.0
20260507121546 53 39 0.0 0.0 0.00 0.08 0.00 82 1008.0
20260507120044 51 265 0.0 0.9 0.00 0.08 0.00 85 1008.0
20260507114550 51 40 0.0 0.0 0.00 0.08 0.00 87 1007.9
20260507113038 49 46 0.0 0.0 0.00 0.08 0.00 89 1007.8
20260507111538 48 236 0.0 0.0 0.00 0.08 0.00 90 1007.7
20260507110032 0 0.0 0.0 0.00 0.08 0.00 1007.5
20260507104525 0 0.0 0.0 0.00 0.08 0.00 1007.8
20260507103023 0 0.0 0.0 0.00 0.08 0.00 1007.3
20260507101518 0 0.0 0.0 0.00 0.08 0.00 1006.8
20260507100014 0 0.0 0.0 0.00 0.08 0.00 1007.0
20260507094508 0 0.0 0.0 0.00 0.08 0.00 1006.8
20260507093004 0 0.0 0.0 0.00 0.08 0.00 1007.3
20260507091559 0 0.0 0.0 0.00 0.08 0.00 1007.5
20260507090106 0 0.0 0.0 0.00 0.08 0.00 1007.7
20260507084551 0 0.0 0.0 0.00 0.08 0.00 1007.7
20260507083047 0 0.0 0.0 0.00 0.08 0.00 1007.1
20260507081541 0 0.0 0.0 0.00 0.08 0.00 1007.0
20260507080039 0 0.0 0.0 0.00 0.08 0.00 1007.0
20260507074533 0 0.0 0.0 0.00 0.08 0.00 1007.1
20260507073030 0 0.0 0.0 0.00 0.08 0.00 1007.1
20260507071528 0 0.0 0.0 0.00 0.08 0.00 1006.7
20260507070022 0 0.0 0.0 0.00 0.08 0.00 1006.3
20260507064517 0 0.0 0.0 0.00 0.08 0.00 1006.0
20260507063012 0 0.0 0.0 0.00 0.08 0.00 1006.4
20260507061509 0 0.0 0.0 0.00 0.08 0.00 1006.4
20260507060005 0 0.0 0.0 0.00 0.08 0.00 1006.4
20260507054609 0 0.0 0.0 0.00 0.08 0.00 1006.4
20260507053056 0 0.0 0.0 0.00 0.08 0.00 1006.9
20260507051553 0 0.0 0.0 0.00 0.08 0.00 1006.7
20260507050047 0 0.0 0.0 0.00 0.08 0.00 1006.7
20260507044543 0 0.0 0.0 0.00 0.08 0.00 1006.6
20260507043038 0 0.0 0.0 0.00 0.08 0.00 1006.6
20260507041548 0 0.0 0.0 0.00 0.08 0.00 1006.4
20260507040030 0 0.0 0.0 0.00 0.08 0.00 1006.4
20260507034526 0 0.0 0.0 0.00 0.08 0.08 1006.4
20260507033021 0 0.0 0.0 0.00 0.08 0.08 1006.1
20260507031617 0 0.0 0.0 0.00 0.08 0.08 1006.0
20260507030013 0 0.0 0.0 0.00 0.08 0.08 1005.5
20260507024508 0 0.0 0.0 0.00 0.08 0.08 1005.4
20260507023004 0 0.0 0.0 0.00 0.08 0.08 1005.7
20260507021600 0 0.0 0.0 0.00 0.08 0.08 1005.6
20260507020055 0 0.0 0.0 0.00 0.08 0.08 1005.2
20260507014604 58 186 0.0 0.9 0.00 0.08 0.08 94 1005.5
20260507013110 58 219 0.0 0.0 0.00 0.08 0.08 94 1005.6
20260507011549 58 233 0.0 0.9 0.00 0.08 0.08 94 1005.4
20260507010047 58 243 0.0 0.9 0.00 0.08 0.08 94 1005.6
20260507004548 58 220 0.0 0.9 0.00 0.08 0.08 94 1005.6
20260507003045 58 229 0.0 6.1 0.00 0.08 0.08 94 1005.7
20260507001604 58 203 0.0 0.0 0.00 0.08 0.08 94 1005.5
20260507000047 58 45 0.0 0.0 0.00 0.08 0.08 94 1005.4
20260506234543 58 225 0.0 0.0 0.00 0.08 0.08 94 1005.4
20260506233046 58 221 0.0 0.9 0.00 0.08 0.08 94 1005.2
20260506231547 59 236 0.0 0.9 0.01 0.08 0.08 93 1005.2
20260506230041 59 159 0.0 6.1 0.02 0.08 0.08 93 1005.3
20260506224540 59 207 0.0 0.0 0.02 0.08 0.08 93 1005.3
20260506223049 59 181 0.0 2.6 0.01 0.07 0.07 93 1005.4
20260506221537 59 188 0.0 3.5 0.01 0.07 0.07 92 1005.5
20260506220036 59 177 0.0 10.4 0.00 0.06 0.06 92 1005.6
20260506214535 59 242 0.0 3.5 0.01 0.06 0.06 91 1005.7
20260506213037 59 181 0.0 3.5 0.01 0.06 0.06 91 1005.8
20260506211533 60 189 0.0 2.6 0.01 0.06 0.06 91 1006.0
20260506210038 60 162 0.0 0.0 0.02 0.06 0.06 92 1006.2
20260506204530 60 205 0.0 5.2 0.02 0.05 0.05 91 1006.3
20260506203040 60 153 0.0 3.5 0.02 0.05 0.05 91 1006.3
20260506201529 60 214 0.9 6.1 0.02 0.05 0.05 90 1006.3
20260506200028 61 188 0.0 3.5 0.02 0.04 0.04 90 1006.1
20260506194528 62 227 0.0 3.5 0.03 0.03 0.03 89 1006.3
20260506193027 62 236 0.0 0.0 0.03 0.03 0.03 90 1006.4